Temp
-5 -5 -5 -5 -5 -5 -5 -5 -5 -5 -5 -4 -5 -5 -5 -5 -4 -4 -5 -5 -5 -5 -4 -4 -4 -4 -4 -4 -4 -4 -4 -4 -4 -4 -4 -4 -5 -5 -5 -5 -4 -4 -4 -4 -4 -4 -4 -5 -5 -5 -5 -5 -5 -5 -5 -5 -5 -5 -6 -6 -6 -6 -6
-5 -5 -5 -5 -5 -4 -5 -5 -5 -5 -5 -4 -5 -5 -5 -4 -4 -4 -4 -5 -5 -5 -5 -5 -4 -4 -4 -4 -4 -4 -4 -4 -4 -4 -4 -4 -5 -5 -5 -5 -5 -4 -4 -4 -4 -4 -5 -5 -5 -5 -5 -5 -5 -5 -5 -5 -6 -6 -6 -6 -6 -6 -6
-4 -5 -5 -4 -4 -4 -5 -5 -5 -4 -5 -5 -5 -5 -5 -5 -5 -4 -4 -5 -5 -5 -5 -5 -4 -4 -4 -4 -4 -4 -4 -4 -4 -4 -4 -4 -5 -5 -5 -5 -5 -5 -4 -4 -4 -5 -5 -5 -5 -5 -5 -5 -5 -5 -5 -6 -6 -6 -6 -6 -6 -6 -6
-4 -5 -5 -4 -4 -4 -5 -5 -5 -5 -5 -5 -5 -5 -5 -5 -5 -5 -4 -4 -5 -5 -5 -5 -5 -4 -4 -4 -4 -4 -4 -4 -4 -4 -4 -4 -5 -5 -5 -5 -5 -5 -5 -5 -5 -5 -5 -5 -5 -5 -5 -5 -5 -5 -5 -6 -6 -6 -6 -6 -6 -6 -6
-5 -5 -5 -4 -4 -4 -5 -5 -4 -5 -5 -5 -5 -5 -5 -5 -5 -5 -4 -4 -4 -4 -5 -5 -5 -5 -4 -4 -4 -4 -4 -4 -4 -4 -4 -4 -4 -4 -5 -5 -5 -5 -5 -5 -5 -5 -5 -5 -5 -5 -5 -5 -5 -5 -6 -6 -6 -6 -6 -6 -6 -6 -6
-5 -5 -4 -4 -4 -4 -5 -5 -4 -5 -5 -5 -6 -5 -5 -5 -5 -5 -5 -4 -4 -4 -4 -4 -4 -4 -4 -4 -4 -4 -4 -4 -4 -4 -4 -4 -4 -4 -4 -4 -5 -5 -5 -5 -5 -5 -5 -5 -5 -5 -5 -5 -5 -5 -6 -6 -6 -6 -6 -6 -6 -6 -6
-5 -5 -5 -5 -4 -4 -5 -5 -5 -5 -5 -5 -6 -6 -5 -5 -5 -5 -5 -4 -4 -4 -4 -4 -4 -4 -4 -4 -4 -4 -4 -4 -4 -4 -4 -4 -4 -4 -4 -4 -4 -5 -5 -5 -5 -5 -5 -5 -5 -5 -5 -5 -5 -6 -6 -6 -6 -6 -6 -6 -6 -6 -6
-5 -5 -5 -5 -5 -4 -5 -5 -5 -5 -5 -5 -6 -6 -5 -5 -5 -5 -5 -5 -4 -4 -4 -4 -4 -4 -4 -4 -4 -4 -4 -4 -4 -4 -4 -4 -4 -4 -4 -4 -4 -4 -4 -5 -5 -5 -5 -5 -5 -5 -5 -5 -6 -6 -6 -6 -6 -6 -6 -6 -6 -6 -6
-5 -5 -5 -5 -5 -4 -5 -5 -5 -5 -5 -5 -5 -6 -6 -5 -5 -5 -5 -5 -5 -5 -5 -5 -4 -4 -4 -4 -4 -4 -4 -4 -3 -4 -4 -4 -4 -4 -4 -4 -4 -4 -4 -5 -5 -5 -5 -5 -5 -5 -5 -5 -5 -5 -5 -5 -5 -5 -5 -5 -5 -5 -6
-5 -5 -5 -5 -5 -5 -5 -5 -6 -6 -6 -5 -5 -6 -6 -6 -5 -5 -5 -5 -5 -5 -5 -5 -5 -5 -5 -4 -4 -4 -4 -4 -4 -4 -4 -4 -4 -4 -4 -4 -4 -4 -4 -4 -5 -5 -5 -5 -5 -5 -5 -5 -5 -5 -5 -5 -5 -5 -5 -5 -5 -5 -5
-5 -5 -5 -5 -5 -5 -5 -5 -5 -5 -6 -6 -5 -6 -6 -6 -6 -5 -5 -5 -5 -5 -5 -5 -5 -5 -5 -5 -5 -4 -4 -4 -4 -4 -4 -4 -4 -4 -4 -4 -4 -4 -4 -4 -4 -5 -5 -5 -5 -5 -5 -5 -5 -5 -5 -5 -5 -5 -5 -5 -5 -5 -5
-6 -6 -5 -5 -5 -5 -5 -5 -5 -6 -6 -6 -6 -6 -6 -6 -6 -6 -5 -6 -6 -5 -5 -5 -5 -5 -5 -5 -5 -5 -4 -4 -4 -4 -4 -4 -4 -4 -4 -4 -4 -4 -4 -4 -4 -5 -5 -5 -5 -5 -5 -5 -5 -5 -5 -5 -5 -5 -5 -5 -5 -5 -5
-5 -6 -5 -6 -6 -6 -6 -6 -5 -5 -6 -6 -6 -6 -6 -6 -6 -6 -6 -6 -6 -6 -5 -5 -5 -5 -5 -5 -5 -5 -5 -4 -4 -4 -4 -4 -4 -4 -4 -4 -4 -4 -4 -4 -4 -4 -4 -5 -5 -5 -5 -5 -5 -5 -5 -5 -5 -5 -5 -5 -5 -5 -5
-5 -5 -5 -6 -6 -6 -6 -6 -5 -5 -6 -6 -6 -6 -6 -6 -6 -6 -6 -6 -6 -6 -6 -5 -5 -5 -5 -5 -5 -5 -5 -5 -4 -4 -4 -4 -4 -4 -4 -4 -4 -4 -4 -4 -4 -4 -4 -4 -4 -5 -5 -5 -5 -5 -5 -5 -5 -5 -5 -5 -5 -5 -5
-5 -5 -6 -6 -6 -6 -6 -6 -6 -6 -6 -6 -6 -6 -6 -6 -6 -6 -6 -6 -6 -6 -6 -5 -5 -5 -5 -5 -5 -5 -5 -5 -5 -4 -4 -4 -4 -4 -4 -4 -4 -4 -4 -4 -4 -4 -4 -4 -4 -4 -4 -5 -5 -5 -5 -5 -5 -5 -5 -5 -5 -5 -5
-5 -5 -5 -5 -6 -6 -6 -7 -6 -6 -7 -7 -6 -6 -6 -6 -6 -6 -6 -6 -6 -6 -6 -6 -5 -5 -5 -6 -6 -5 -5 -5 -5 -5 -4 -4 -4 -4 -4 -4 -4 -4 -4 -4 -4 -4 -4 -4 -4 -4 -4 -4 -5 -5 -5 -5 -5 -5 -5 -5 -4 -5 -5
-6 -6 -6 -6 -6 -6 -6 -6 -6 -7 -7 -7 -6 -6 -6 -6 -6 -7 -7 -7 -6 -6 -6 -6 -6 -6 -6 -6 -6 -5 -5 -5 -5 -5 -5 -4 -4 -4 -4 -4 -4 -4 -4 -4 -4 -4 -4 -4 -4 -4 -5 -5 -5 -5 -5 -5 -5 -5 -5 -5 -4 -4 -5
-6 -6 -6 -6 -6 -6 -6 -6 -7 -7 -7 -7 -7 -6 -6 -6 -6 -7 -7 -7 -7 -7 -6 -6 -6 -6 -6 -6 -6 -6 -5 -5 -5 -5 -5 -5 -4 -4 -4 -4 -4 -4 -4 -4 -4 -4 -4 -4 -5 -5 -5 -5 -5 -5 -5 -5 -5 -5 -5 -4 -4 -4 -5
-6 -5 -5 -6 -6 -6 -6 -6 -6 -7 -7 -7 -7 -6 -6 -6 -6 -7 -7 -7 -7 -7 -7 -6 -6 -6 -6 -6 -6 -6 -6 -6 -5 -5 -5 -5 -5 -5 -4 -4 -4 -4 -4 -4 -4 -5 -4 -5 -5 -5 -5 -5 -5 -5 -5 -5 -4 -5 -5 -4 -4 -4 -5
-6 -5 -5 -6 -6 -6 -6 -7 -7 -7 -7 -7 -7 -7 -7 -7 -7 -7 -7 -7 -7 -7 -7 -7 -7 -7 -6 -6 -6 -6 -6 -6 -6 -5 -5 -5 -5 -5 -5 -4 -4 -4 -4 -4 -4 -5 -5 -5 -5 -5 -5 -5 -5 -5 -5 -4 -4 -5 -5 -4 -4 -4 -5
-6 -6 -6 -6 -6 -6 -7 -7 -7 -7 -7 -7 -7 -7 -7 -7 -7 -7 -7 -7 -7 -7 -7 -7 -7 -7 -6 -6 -6 -6 -6 -6 -6 -5 -5 -5 -5 -5 -5 -5 -5 -5 -5 -5 -5 -5 -5 -5 -5 -5 -5 -5 -5 -5 -5 -4 -4 -4 -4 -4 -4 -4 -5
-7 -6 -6 -6 -6 -6 -7 -7 -7 -7 -7 -7 -7 -7 -7 -7 -7 -7 -7 -7 -7 -7 -7 -7 -7 -7 -7 -6 -6 -6 -6 -6 -6 -6 -5 -5 -5 -5 -5 -5 -4 -5 -5 -5 -5 -5 -5 -5 -5 -5 -5 -5 -5 -5 -5 -4 -4 -4 -4 -4 -4 -4 -4
-7 -7 -7 -6 -6 -6 -6 -7 -7 -7 -7 -7 -7 -7 -7 -7 -7 -7 -7 -7 -7 -7 -7 -7 -7 -7 -7 -7 -6 -6 -7 -6 -6 -5 -5 -5 -5 -5 -5 -5 -5 -5 -5 -5 -5 -5 -5 -5 -5 -5 -5 -5 -5 -5 -5 -4 -4 -4 -4 -4 -4 -4 -4
-7 -7 -7 -7 -7 -6 -6 -6 -6 -6 -6 -6 -7 -7 -7 -7 -8 -8 -7 -7 -7 -7 -7 -7 -7 -7 -7 -7 -7 -7 -7 -6 -6 -6 -6 -5 -5 -5 -5 -5 -5 -5 -5 -5 -5 -5 -5 -5 -5 -5 -5 -5 -5 -4 -5 -4 -4 -4 -4 -4 -4 -4 -4
-7 -7 -7 -7 -7 -7 -6 -6 -6 -6 -6 -6 -7 -7 -7 -8 -8 -8 -8 -7 -7 -7 -7 -7 -7 -7 -7 -7 -7 -7 -7 -6 -6 -6 -6 -5 -5 -5 -5 -5 -5 -5 -5 -5 -5 -5 -5 -5 -5 -5 -5 -5 -5 -4 -5 -5 -4 -4 -4 -4 -4 -4 -5
-7 -7 -7 -7 -7 -7 -7 -6 -6 -6 -6 -6 -7 -7 -7 -7 -8 -8 -8 -8 -7 -7 -7 -7 -7 -7 -7 -7 -7 -7 -7 -6 -6 -6 -6 -6 -5 -5 -5 -5 -5 -5 -5 -5 -5 -5 -5 -5 -5 -5 -5 -5 -5 -5 -5 -5 -5 -5 -5 -5 -5 -5 -5
-7 -7 -7 -7 -7 -7 -7 -6 -6 -6 -6 -6 -6 -7 -7 -7 -7 -7 -8 -8 -7 -7 -7 -7 -7 -7 -7 -8 -7 -7 -7 -6 -6 -6 -6 -6 -6 -5 -5 -5 -5 -5 -5 -5 -5 -5 -5 -5 -5 -5 -5 -5 -5 -5 -5 -5 -5 -5 -5 -5 -5 -5 -5
-7 -7 -7 -7 -7 -7 -7 -6 -6 -6 -6 -6 -6 -6 -7 -7 -7 -7 -7 -8 -8 -7 -7 -7 -7 -7 -8 -8 -8 -7 -7 -7 -6 -6 -6 -6 -6 -5 -5 -5 -5 -5 -5 -5 -5 -5 -5 -5 -5 -5 -5 -5 -5 -5 -5 -5 -5 -5 -5 -5 -5 -5 -5
-7 -7 -7 -7 -7 -7 -7 -6 -6 -6 -6 -6 -6 -6 -7 -7 -7 -7 -7 -8 -8 -7 -7 -7 -7 -7 -8 -8 -8 -8 -7 -7 -6 -6 -6 -6 -6 -6 -5 -5 -5 -5 -5 -5 -5 -5 -5 -5 -5 -5 -5 -5 -5 -5 -5 -5 -5 -5 -5 -5 -5 -5 -5
-7 -7 -7 -7 -7 -7 -7 -6 -6 -6 -6 -6 -6 -6 -6 -6 -7 -7 -7 -7 -8 -7 -7 -7 -7 -8 -8 -8 -8 -8 -7 -7 -7 -6 -6 -6 -6 -6 -6 -5 -5 -5 -5 -5 -5 -5 -5 -5 -5 -5 -5 -5 -6 -6 -6 -6 -6 -6 -6 -6 -6 -6 -6
-8 -8 -8 -7 -7 -7 -6 -6 -6 -6 -6 -6 -6 -6 -6 -6 -7 -7 -7 -7 -7 -7 -7 -7 -8 -8 -8 -8 -8 -8 -7 -7 -7 -7 -7 -6 -6 -6 -6 -6 -6 -6 -6 -6 -5 -5 -5 -5 -5 -6 -6 -6 -6 -6 -6 -6 -6 -6 -6 -6 -6 -6 -6
-8 -8 -8 -8 -7 -7 -6 -7 -7 -7 -7 -6 -6 -6 -6 -6 -6 -7 -7 -7 -7 -7 -7 -8 -8 -8 -8 -8 -8 -8 -7 -7 -7 -7 -7 -7 -6 -6 -6 -6 -6 -6 -6 -6 -6 -6 -6 -6 -6 -6 -6 -6 -6 -6 -6 -6 -6 -7 -7 -7 -7 -6 -6
-8 -9 -9 -8 -8 -7 -7 -7 -7 -7 -7 -6 -6 -6 -6 -6 -6 -7 -7 -7 -7 -7 -8 -8 -8 -8 -8 -8 -8 -7 -7 -7 -7 -7 -7 -7 -6 -6 -6 -6 -6 -6 -6 -6 -6 -6 -6 -6 -6 -6 -6 -6 -7 -7 -7 -7 -7 -7 -7 -7 -7 -7 -7
-9 -9 -9 -9 -8 -7 -7 -7 -7 -7 -7 -7 -6 -6 -6 -6 -6 -6 -7 -7 -7 -7 -8 -8 -8 -8 -8 -8 -8 -7 -7 -8 -7 -7 -7 -7 -6 -6 -6 -6 -6 -6 -6 -6 -6 -6 -6 -7 -7 -7 -7 -7 -7 -7 -7 -7 -7 -7 -7 -7 -7 -7 -7
-9 -9 -9 -9 -8 -8 -7 -7 -7 -7 -7 -7 -6 -6 -7 -7 -7 -7 -7 -7 -7 -8 -8 -8 -8 -8 -8 -8 -8 -7 -8 -8 -7 -7 -7 -7 -7 -6 -6 -7 -7 -7 -7 -7 -7 -7 -7 -7 -7 -7 -7 -7 -7 -7 -7 -7 -7 -7 -7 -7 -7 -7 -7
-9 -9 -9 -9 -8 -8 -7 -7 -7 -7 -7 -6 -6 -6 -7 -7 -7 -7 -7 -7 -7 -8 -8 -8 -8 -8 -8 -8 -8 -8 -8 -8 -8 -7 -7 -7 -7 -7 -7 -7 -7 -7 -7 -7 -7 -7 -7 -7 -7 -7 -7 -7 -7 -7 -7 -7 -7 -7 -7 -7 -7 -7 -8
-9 -9 -9 -9 -8 -8 -7 -7 -7 -7 -7 -7 -6 -6 -6 -6 -7 -7 -7 -7 -8 -8 -8 -8 -8 -8 -8 -8 -8 -8 -8 -8 -8 -7 -7 -7 -7 -7 -7 -7 -7 -7 -7 -7 -7 -8 -8 -8 -8 -8 -7 -7 -7 -7 -7 -7 -7 -8 -8 -8 -8 -8 -8
-8 -9 -9 -8 -8 -8 -7 -8 -7 -7 -7 -7 -6 -6 -6 -6 -7 -7 -7 -7 -8 -8 -8 -8 -8 -8 -8 -8 -8 -8 -8 -8 -8 -8 -7 -7 -7 -7 -7 -8 -8 -8 -8 -8 -8 -8 -8 -8 -8 -8 -8 -8 -8 -8 -8 -8 -8 -8 -8 -8 -8 -8 -8
Height
5875 5876 5878 5882 5883 5885 5889 5889 5889 5892 5895 5898 5900 5901 5902 5903 5905 5906 5908 5911 5913 5914 5916 5918 5920 5922 5924 5926 5927 5928 5930 5932 5934 5936 5938 5939 5940 5942 5943 5944 5946 5947 5948 5949 5950 5951 5953 5954 5954 5955 5956 5956 5957 5958 5959 5959 5960 5961 5961 5962 5963 5964 5964
5873 5874 5874 5877 5881 5884 5888 5889 5889 5891 5894 5897 5899 5900 5901 5903 5904 5906 5907 5909 5911 5913 5915 5917 5919 5921 5923 5924 5926 5928 5929 5931 5933 5935 5937 5938 5940 5942 5943 5944 5945 5946 5947 5948 5950 5951 5952 5953 5954 5955 5955 5956 5957 5958 5958 5959 5960 5961 5961 5962 5963 5964 5964
5871 5873 5873 5875 5880 5883 5886 5888 5889 5889 5892 5895 5897 5899 5900 5902 5903 5904 5906 5908 5909 5911 5913 5915 5917 5919 5921 5923 5925 5926 5928 5930 5932 5934 5936 5938 5939 5941 5942 5943 5944 5946 5947 5948 5950 5951 5952 5953 5954 5954 5955 5956 5957 5957 5958 5959 5960 5961 5961 5962 5963 5964 5964
5871 5872 5873 5874 5879 5882 5884 5885 5887 5888 5891 5894 5896 5897 5899 5900 5902 5903 5905 5907 5908 5910 5912 5914 5916 5917 5919 5921 5923 5925 5927 5929 5932 5933 5935 5936 5938 5939 5941 5942 5944 5945 5946 5948 5949 5950 5951 5952 5953 5954 5955 5956 5957 5958 5958 5959 5960 5961 5962 5962 5963 5964 5964
5869 5870 5871 5872 5875 5879 5880 5880 5882 5885 5889 5892 5894 5896 5897 5899 5900 5902 5904 5906 5907 5909 5911 5912 5913 5915 5917 5919 5921 5924 5926 5928 5930 5932 5934 5935 5937 5939 5940 5942 5943 5945 5946 5947 5948 5949 5950 5952 5953 5954 5955 5956 5957 5958 5959 5959 5960 5961 5962 5962 5963 5964 5964
5865 5867 5869 5870 5872 5877 5879 5879 5880 5883 5886 5890 5893 5894 5895 5897 5899 5901 5902 5904 5906 5907 5909 5910 5912 5914 5916 5918 5920 5922 5924 5927 5929 5931 5933 5934 5936 5938 5939 5941 5942 5944 5945 5946 5947 5949 5950 5951 5952 5953 5954 5956 5957 5958 5959 5960 5960 5961 5962 5962 5963 5964 5964
5862 5863 5866 5869 5870 5874 5878 5880 5882 5883 5883 5887 5890 5892 5893 5895 5897 5899 5901 5902 5904 5906 5908 5910 5912 5914 5915 5917 5918 5920 5923 5925 5927 5929 5931 5933 5935 5937 5938 5940 5941 5943 5944 5945 5947 5948 5949 5950 5952 5953 5954 5955 5957 5958 5959 5959 5960 5961 5961 5962 5963 5963 5964
5858 5860 5864 5867 5868 5871 5876 5879 5881 5882 5882 5884 5887 5890 5892 5894 5896 5897 5899 5901 5903 5905 5907 5909 5911 5913 5915 5916 5918 5919 5921 5923 5925 5927 5929 5931 5933 5935 5937 5938 5940 5942 5943 5945 5946 5947 5948 5950 5951 5952 5953 5955 5956 5957 5958 5959 5960 5960 5961 5962 5962 5963 5963
5855 5858 5861 5864 5866 5868 5872 5877 5879 5881 5882 5883 5885 5888 5890 5892 5894 5896 5898 5900 5901 5903 5905 5907 5909 5911 5913 5915 5917 5918 5920 5921 5924 5926 5928 5930 5932 5934 5936 5937 5939 5940 5942 5944 5945 5946 5947 5949 5950 5951 5953 5954 5955 5957 5958 5958 5959 5960 5961 5961 5962 5962 5963
5853 5855 5857 5861 5864 5865 5869 5874 5876 5877 5879 5881 5883 5886 5888 5890 5892 5894 5896 5897 5899 5901 5903 5904 5907 5909 5911 5913 5915 5916 5918 5920 5922 5924 5927 5929 5931 5933 5934 5936 5938 5939 5941 5942 5944 5945 5946 5947 5949 5950 5952 5953 5954 5955 5956 5957 5958 5959 5960 5960 5961 5962 5962
5849 5851 5854 5858 5861 5862 5865 5870 5873 5875 5877 5880 5881 5884 5886 5888 5890 5892 5894 5896 5898 5899 5901 5902 5904 5907 5909 5911 5912 5914 5916 5918 5920 5923 5925 5927 5929 5931 5933 5934 5936 5938 5939 5941 5942 5944 5945 5946 5948 5949 5950 5951 5953 5954 5955 5956 5957 5958 5959 5960 5960 5961 5961
5844 5848 5852 5856 5859 5862 5864 5866 5869 5873 5875 5877 5879 5881 5883 5886 5888 5890 5892 5894 5896 5897 5898 5900 5902 5905 5907 5908 5910 5912 5914 5916 5919 5921 5924 5925 5927 5929 5931 5933 5935 5936 5938 5939 5941 5942 5944 5945 5946 5947 5948 5950 5951 5952 5953 5955 5956 5957 5958 5959 5959 5960 5960
5840 5843 5847 5852 5855 5859 5861 5861 5863 5868 5872 5874 5876 5878 5881 5884 5885 5887 5889 5891 5893 5895 5897 5899 5900 5903 5904 5906 5908 5910 5912 5914 5917 5919 5922 5923 5925 5927 5928 5931 5933 5935 5937 5938 5940 5941 5942 5943 5945 5946 5947 5948 5949 5951 5952 5954 5955 5956 5957 5958 5958 5959 5959
5839 5842 5846 5849 5851 5854 5857 5857 5860 5865 5869 5871 5873 5876 5878 5880 5882 5884 5886 5888 5890 5892 5895 5897 5899 5901 5902 5903 5905 5908 5910 5912 5914 5917 5919 5921 5923 5924 5926 5928 5931 5933 5935 5937 5938 5940 5941 5942 5943 5944 5945 5946 5948 5949 5951 5953 5954 5955 5956 5956 5957 5958 5958
5835 5839 5841 5844 5847 5850 5853 5855 5858 5863 5866 5868 5870 5872 5875 5877 5879 5881 5883 5885 5887 5889 5892 5895 5897 5899 5900 5901 5903 5906 5908 5910 5911 5914 5916 5918 5920 5922 5924 5926 5928 5930 5933 5935 5937 5938 5939 5940 5942 5943 5944 5945 5947 5948 5950 5952 5953 5954 5955 5955 5956 5956 5957
5829 5831 5834 5837 5840 5843 5846 5849 5853 5858 5861 5863 5865 5868 5871 5874 5876 5878 5880 5882 5884 5887 5889 5892 5895 5897 5899 5900 5901 5903 5905 5907 5909 5911 5913 5916 5918 5920 5922 5924 5926 5928 5931 5933 5935 5936 5937 5939 5940 5942 5943 5944 5946 5947 5949 5951 5952 5953 5953 5954 5955 5955 5956
5824 5826 5830 5833 5835 5838 5841 5845 5849 5853 5857 5859 5862 5865 5868 5871 5874 5876 5878 5880 5882 5884 5886 5889 5892 5895 5897 5898 5899 5901 5902 5904 5907 5909 5911 5913 5916 5918 5920 5922 5924 5926 5928 5930 5932 5934 5936 5937 5939 5940 5941 5943 5945 5946 5948 5950 5951 5952 5952 5953 5953 5954 5955
5818 5821 5825 5829 5832 5836 5839 5842 5846 5850 5854 5857 5859 5862 5865 5869 5871 5874 5875 5877 5880 5882 5884 5886 5889 5892 5894 5896 5897 5898 5900 5902 5904 5906 5908 5911 5913 5916 5918 5920 5922 5924 5926 5928 5930 5932 5933 5935 5937 5938 5940 5941 5943 5945 5947 5948 5949 5950 5951 5951 5952 5953 5953
5814 5817 5821 5825 5829 5833 5836 5839 5843 5846 5850 5853 5855 5859 5862 5866 5868 5871 5873 5876 5878 5880 5881 5883 5886 5889 5891 5893 5895 5897 5898 5900 5902 5904 5906 5908 5911 5913 5915 5917 5919 5922 5924 5926 5927 5929 5931 5933 5935 5936 5937 5939 5941 5943 5944 5946 5947 5948 5949 5950 5951 5951 5952
5811 5815 5819 5823 5827 5830 5833 5837 5841 5844 5848 5850 5852 5855 5859 5861 5865 5868 5870 5872 5874 5876 5878 5880 5883 5886 5888 5891 5893 5895 5896 5897 5899 5902 5904 5906 5908 5910 5912 5915 5917 5919 5921 5923 5925 5927 5929 5931 5932 5934 5935 5937 5939 5941 5942 5943 5945 5946 5947 5948 5949 5949 5950
5809 5813 5816 5820 5824 5827 5831 5835 5838 5842 5845 5848 5850 5853 5855 5857 5861 5864 5866 5868 5870 5873 5876 5878 5881 5883 5886 5888 5890 5892 5894 5895 5897 5899 5901 5904 5906 5908 5910 5912 5915 5917 5918 5920 5922 5924 5926 5928 5929 5931 5933 5934 5936 5938 5939 5941 5943 5944 5945 5946 5947 5947 5948
5805 5809 5813 5817 5820 5824 5828 5832 5835 5839 5842 5845 5848 5850 5852 5855 5858 5861 5863 5865 5868 5871 5873 5875 5878 5881 5883 5885 5888 5890 5892 5893 5894 5897 5899 5901 5903 5906 5908 5910 5912 5914 5916 5917 5919 5921 5923 5925 5926 5928 5930 5931 5933 5935 5937 5938 5940 5941 5942 5943 5944 5945 5946
5802 5806 5809 5813 5817 5820 5824 5828 5832 5835 5839 5843 5846 5848 5850 5853 5855 5858 5861 5863 5865 5868 5870 5873 5876 5879 5881 5883 5885 5888 5889 5890 5892 5894 5897 5899 5901 5903 5905 5907 5909 5911 5913 5914 5916 5918 5920 5922 5923 5925 5926 5928 5930 5932 5934 5935 5937 5938 5939 5941 5942 5943 5944
5799 5803 5806 5809 5813 5817 5821 5825 5829 5833 5836 5839 5843 5846 5849 5852 5853 5855 5858 5860 5863 5866 5868 5871 5874 5877 5879 5881 5883 5885 5886 5888 5890 5892 5894 5896 5898 5900 5902 5904 5906 5908 5909 5911 5913 5915 5916 5918 5920 5921 5923 5925 5927 5929 5930 5932 5934 5935 5937 5938 5940 5941 5942
5796 5799 5803 5806 5810 5814 5818 5822 5826 5830 5833 5836 5841 5844 5846 5849 5851 5853 5855 5858 5861 5863 5865 5869 5872 5875 5877 5879 5880 5882 5884 5885 5887 5890 5892 5893 5895 5897 5899 5901 5902 5904 5906 5907 5909 5911 5913 5914 5916 5918 5920 5922 5923 5925 5927 5928 5930 5932 5934 5936 5937 5939 5940
5793 5796 5799 5803 5807 5810 5815 5819 5823 5827 5829 5833 5837 5841 5843 5845 5848 5851 5853 5856 5858 5860 5864 5868 5870 5873 5875 5876 5878 5879 5881 5882 5884 5887 5889 5890 5892 5893 5895 5897 5899 5900 5902 5904 5905 5907 5909 5911 5913 5915 5917 5918 5920 5922 5923 5925 5927 5929 5931 5932 5934 5935 5937
5790 5793 5796 5799 5803 5807 5811 5816 5820 5823 5826 5829 5833 5837 5840 5842 5844 5848 5851 5853 5855 5858 5862 5865 5867 5869 5871 5873 5875 5877 5878 5880 5881 5883 5885 5886 5888 5890 5891 5893 5895 5897 5899 5901 5902 5904 5906 5908 5910 5911 5913 5914 5916 5918 5920 5921 5924 5926 5928 5929 5931 5932 5933
5786 5789 5792 5796 5799 5803 5807 5812 5816 5819 5822 5825 5830 5834 5836 5838 5841 5844 5848 5851 5853 5856 5859 5861 5863 5866 5868 5870 5872 5874 5876 5877 5878 5880 5882 5883 5885 5886 5888 5890 5892 5894 5896 5897 5899 5901 5903 5905 5907 5908 5910 5911 5913 5915 5917 5918 5920 5923 5924 5926 5927 5929 5930
5782 5785 5789 5792 5795 5798 5803 5808 5811 5815 5818 5822 5827 5830 5832 5834 5838 5841 5845 5849 5852 5853 5854 5857 5860 5862 5865 5867 5869 5871 5873 5874 5875 5876 5878 5880 5881 5883 5884 5886 5888 5890 5893 5894 5896 5898 5900 5902 5903 5905 5906 5908 5910 5912 5913 5915 5917 5919 5921 5922 5924 5926 5927
5778 5782 5785 5788 5791 5794 5798 5803 5807 5811 5815 5818 5822 5825 5827 5830 5834 5838 5842 5846 5847 5847 5849 5853 5856 5859 5861 5864 5866 5868 5870 5871 5872 5873 5875 5876 5878 5879 5881 5883 5885 5887 5889 5891 5893 5895 5897 5898 5900 5901 5903 5905 5907 5908 5910 5912 5914 5916 5917 5919 5920 5922 5924
5774 5778 5781 5784 5787 5790 5795 5799 5803 5806 5810 5813 5816 5819 5822 5826 5830 5834 5837 5840 5841 5842 5846 5849 5852 5855 5858 5861 5863 5865 5867 5868 5869 5870 5871 5873 5874 5876 5878 5880 5882 5884 5886 5888 5890 5892 5894 5895 5897 5899 5900 5902 5904 5905 5907 5909 5911 5912 5914 5915 5917 5918 5920
5771 5774 5777 5781 5784 5787 5791 5795 5799 5802 5805 5808 5811 5814 5817 5821 5825 5829 5832 5835 5837 5839 5842 5846 5849 5852 5855 5857 5859 5862 5863 5864 5865 5867 5868 5870 5871 5873 5875 5877 5879 5881 5883 5884 5886 5889 5890 5892 5894 5896 5897 5899 5901 5903 5904 5906 5907 5909 5910 5912 5913 5915 5916
5768 5771 5774 5778 5781 5784 5789 5792 5795 5798 5801 5804 5807 5810 5813 5816 5820 5824 5827 5830 5833 5836 5838 5842 5846 5849 5851 5854 5856 5858 5859 5861 5862 5863 5865 5867 5869 5870 5872 5874 5876 5878 5880 5882 5883 5885 5887 5889 5891 5893 5895 5896 5898 5899 5901 5903 5904 5906 5907 5909 5910 5912 5913
5764 5768 5772 5775 5778 5782 5785 5789 5792 5795 5798 5800 5803 5806 5809 5812 5816 5819 5823 5826 5829 5832 5835 5839 5843 5845 5848 5850 5852 5854 5856 5857 5858 5860 5862 5864 5865 5867 5869 5871 5873 5875 5877 5879 5880 5882 5884 5886 5888 5890 5892 5893 5895 5896 5898 5899 5901 5903 5904 5906 5908 5909 5910
5761 5765 5769 5772 5775 5779 5782 5786 5789 5791 5794 5797 5799 5802 5806 5809 5812 5816 5819 5823 5826 5829 5832 5836 5839 5842 5844 5847 5849 5850 5852 5853 5855 5857 5859 5860 5862 5864 5866 5868 5870 5872 5874 5875 5877 5879 5881 5883 5885 5887 5888 5890 5891 5893 5894 5897 5898 5900 5902 5903 5905 5906 5907
5758 5763 5766 5770 5773 5775 5779 5782 5785 5788 5791 5793 5796 5799 5802 5804 5808 5811 5814 5818 5822 5826 5829 5833 5836 5839 5841 5843 5845 5847 5848 5850 5852 5854 5855 5857 5859 5861 5863 5865 5867 5869 5870 5872 5875 5877 5879 5880 5882 5884 5885 5887 5888 5890 5892 5894 5896 5898 5899 5901 5902 5903 5904
5755 5760 5763 5767 5769 5772 5776 5779 5782 5784 5788 5790 5792 5794 5797 5800 5804 5807 5810 5814 5818 5822 5826 5830 5833 5835 5837 5839 5841 5843 5845 5847 5849 5851 5853 5854 5856 5858 5860 5862 5863 5865 5867 5870 5872 5874 5875 5877 5879 5881 5882 5884 5886 5888 5890 5891 5893 5895 5896 5898 5899 5900 5901
5752 5756 5760 5763 5766 5768 5771 5774 5777 5780 5783 5785 5788 5791 5793 5796 5799 5802 5806 5810 5815 5818 5822 5826 5829 5831 5834 5836 5837 5840 5842 5844 5845 5848 5849 5851 5853 5855 5857 5858 5860 5862 5864 5866 5868 5870 5872 5874 5876 5877 5879 5881 5883 5885 5887 5888 5890 5891 5893 5894 5895 5897 5898
Wind_Speed
35 36 35 32 30 28 25 23 22 22 20 17 14 14 14 15 17 21 26 29 29 28 28 28 28 28 28 28 28 27 26 24 23 22 22 22 22 23 22 22 21 20 18 17 15 14 12 11 10 10 10 10 9 9 9 8 8 7 6 6 5 5 5
37 36 36 33 30 27 26 27 26 22 20 17 15 15 14 13 14 18 23 28 29 29 29 29 29 28 29 29 29 29 27 26 24 23 22 22 22 22 22 22 22 21 20 18 16 14 13 12 11 10 10 10 10 10 10 9 8 7 6 5 5 4 4
38 36 36 33 29 27 29 30 28 23 20 18 16 16 14 13 13 15 20 26 29 30 30 29 30 30 30 30 30 30 28 27 25 24 23 23 23 23 23 23 22 22 21 19 17 15 14 13 11 11 11 10 10 10 10 10 9 8 8 7 6 5 5
40 39 38 36 31 29 32 32 29 24 22 19 17 17 16 14 14 15 17 23 28 30 30 30 30 31 32 32 31 31 29 27 26 24 24 24 24 24 24 24 23 22 21 19 18 17 15 14 12 12 12 12 12 13 13 13 12 11 9 8 7 6 5
42 42 42 39 35 32 34 34 30 26 23 20 19 19 18 17 15 14 15 19 24 29 31 32 33 33 33 33 33 32 31 29 27 26 26 25 25 25 24 24 23 23 22 21 20 19 17 16 14 15 15 15 15 15 15 13 12 10 9 7 5 4 3
44 44 43 41 37 33 34 34 31 28 25 22 20 21 20 18 16 15 15 16 21 27 31 33 34 34 34 35 34 33 32 30 28 27 27 27 26 25 25 24 24 23 23 22 21 20 19 17 17 17 18 17 17 16 15 13 11 9 7 6 5 5 4
46 46 43 41 39 34 33 35 34 30 28 25 23 23 23 20 18 16 16 16 18 22 28 31 32 33 35 36 36 35 34 32 30 29 28 28 28 27 26 25 25 24 24 23 22 21 20 19 19 20 20 19 18 17 15 13 11 9 8 7 6 6 6
46 46 43 41 40 36 34 34 34 32 30 28 26 25 25 22 20 19 16 16 16 17 22 28 31 32 34 35 36 36 35 33 32 31 30 30 29 28 27 26 25 25 24 23 22 22 22 21 21 21 21 21 20 18 16 14 12 10 9 8 8 8 7
46 45 45 42 41 38 35 34 33 34 35 32 28 27 27 25 22 20 18 17 17 16 18 23 28 31 33 35 36 36 36 35 33 32 31 30 29 29 28 27 26 26 25 24 23 23 23 22 22 22 23 22 22 20 18 15 13 11 10 9 9 9 9
45 44 45 43 41 40 37 35 36 38 38 36 32 29 29 28 25 23 22 20 19 17 18 20 25 30 33 34 35 37 37 36 34 33 32 31 30 29 28 28 27 27 26 26 25 25 25 24 23 23 23 24 23 22 20 18 15 13 11 10 10 10 10
44 44 44 42 41 40 38 37 38 39 38 36 34 32 31 30 28 26 25 23 21 20 20 20 22 26 30 34 35 36 37 37 35 34 33 31 31 30 29 29 28 28 28 27 27 26 26 25 24 24 24 25 25 24 22 20 17 14 12 11 10 11 10
44 43 42 41 40 39 38 39 39 38 37 37 35 34 33 32 31 30 28 26 24 23 22 21 21 22 27 32 35 36 37 37 36 35 33 32 32 31 31 30 29 29 29 28 28 28 28 27 26 25 26 27 27 26 24 21 18 15 13 12 11 12 12
47 45 44 43 42 40 39 42 42 39 38 38 37 37 35 33 33 32 30 28 27 26 24 22 21 21 24 29 33 35 36 37 37 36 34 34 33 33 32 31 29 29 29 29 28 28 28 28 27 27 27 28 29 28 25 22 18 15 13 13 13 13 13
46 44 42 44 44 43 43 44 44 41 40 39 39 39 36 35 35 34 32 31 30 29 26 23 22 21 23 27 31 33 35 36 37 37 36 36 35 34 33 31 30 29 29 29 28 28 29 29 28 28 27 28 29 28 26 22 19 16 14 14 14 14 14
44 43 42 44 46 45 44 44 43 42 41 41 40 40 38 37 37 36 35 33 32 31 28 25 23 22 22 25 28 31 34 35 36 37 38 37 36 36 34 32 31 30 29 28 28 28 29 30 29 28 27 28 28 28 25 22 19 17 16 16 15 15 14
43 46 46 46 49 50 49 48 46 44 43 43 42 41 39 38 37 36 36 35 33 32 30 27 25 22 21 23 25 29 33 35 36 37 38 38 37 36 35 34 32 31 29 29 29 28 28 30 30 29 28 28 27 27 25 22 20 19 18 17 15 15 14
44 46 48 46 48 51 51 50 49 46 45 45 44 41 39 38 37 36 36 36 34 33 31 29 27 23 21 22 24 27 31 34 36 36 37 38 38 37 36 35 34 32 30 30 29 28 28 29 30 30 29 28 27 27 25 23 21 20 19 18 16 15 14
49 49 50 49 49 50 51 50 49 47 46 45 43 41 39 38 36 37 37 37 35 34 33 31 29 25 23 23 24 25 27 32 34 35 36 37 38 38 37 36 35 33 32 31 30 29 28 28 29 30 30 28 27 27 26 25 23 21 20 18 16 15 14
52 52 51 50 50 50 51 51 50 48 46 45 44 42 39 37 36 35 36 36 35 35 35 33 31 28 25 24 23 23 25 29 32 34 35 35 37 38 38 37 36 34 32 32 31 31 29 28 29 31 31 30 28 28 27 26 24 23 22 20 17 16 15
52 52 51 50 50 52 52 51 50 49 47 46 45 42 40 39 36 34 35 37 37 37 37 36 34 31 27 25 23 22 24 28 30 32 33 33 35 37 38 37 36 35 34 33 32 31 30 29 29 30 31 32 30 29 29 28 26 24 23 21 19 18 16
50 52 52 51 51 52 53 52 51 49 48 47 45 43 42 41 38 36 36 37 37 37 37 37 35 32 29 26 24 23 24 26 29 31 31 31 32 34 36 37 36 35 35 34 32 31 30 30 30 31 31 32 32 32 31 29 27 26 25 23 21 19 17
50 52 53 53 53 53 53 53 52 51 49 47 45 45 44 42 39 37 35 35 35 35 36 37 35 33 31 27 25 23 24 26 27 29 30 31 31 31 34 35 36 35 35 35 33 32 31 31 31 31 32 33 33 33 32 31 29 28 27 25 22 21 18
50 53 54 54 54 54 54 54 53 52 50 48 47 47 45 42 40 38 36 35 34 34 36 36 35 33 31 28 26 24 26 26 26 27 29 30 30 30 31 32 34 35 35 35 34 33 32 32 32 32 33 33 33 33 33 33 31 30 29 27 24 22 20
49 53 55 56 56 56 55 54 53 52 51 50 48 47 45 44 43 41 39 37 34 34 36 36 34 32 30 29 27 26 27 27 25 25 27 29 30 31 31 31 32 33 34 35 35 34 33 33 33 33 33 33 32 33 33 33 33 32 30 28 25 24 22
49 52 56 57 57 57 56 55 54 53 53 51 50 48 47 47 45 43 41 39 36 35 36 35 33 31 30 30 28 27 28 28 25 24 26 27 29 31 32 32 32 33 33 34 35 34 34 33 33 32 32 32 32 32 33 33 33 32 31 29 26 25 24
49 51 55 58 59 58 57 56 55 54 54 53 51 49 49 48 48 46 44 41 39 37 36 34 32 31 31 30 29 28 29 29 26 24 24 26 28 30 32 33 33 33 33 34 34 34 34 33 32 31 31 31 31 31 32 33 32 31 30 29 27 26 25
48 50 53 56 58 59 58 57 56 55 56 54 52 50 50 50 49 48 46 44 41 38 36 34 34 32 32 31 30 29 29 29 27 25 25 26 27 28 31 33 33 33 32 32 33 33 33 32 31 31 30 30 30 31 32 33 32 30 29 28 27 27 27
48 49 50 53 56 58 58 57 56 56 56 55 52 50 50 50 49 47 46 44 42 39 37 36 35 34 33 32 31 30 30 30 29 27 26 26 26 27 29 31 33 33 32 32 32 31 31 31 30 30 30 29 29 30 30 31 30 28 27 27 28 27 27
47 48 49 51 54 56 57 55 55 56 56 54 51 49 51 51 48 46 44 42 42 42 41 39 37 35 34 33 32 31 30 30 30 29 27 27 26 26 27 29 32 32 31 31 31 30 30 31 30 30 29 28 28 29 29 29 29 27 27 27 27 27 27
45 46 48 49 52 54 53 52 53 54 53 52 50 49 51 51 49 46 43 43 44 45 43 40 38 36 35 34 33 31 30 30 30 29 28 27 27 27 27 28 30 31 31 31 31 30 30 30 29 29 28 27 28 28 28 28 27 26 26 26 27 27 26
43 45 47 48 50 51 51 50 50 50 50 50 50 49 49 49 49 48 46 45 46 47 44 42 40 38 37 36 35 32 31 30 30 29 29 28 27 27 27 28 28 29 30 30 30 29 29 29 28 27 27 27 27 26 26 26 25 25 25 26 27 27 27
43 44 45 46 48 50 49 47 46 46 47 47 47 46 46 46 48 49 49 47 47 47 46 44 41 39 39 38 36 33 31 30 29 29 29 28 27 27 27 27 28 28 29 30 29 28 27 27 27 26 26 25 25 25 25 25 25 26 26 26 27 27 27
43 43 42 43 45 45 43 41 41 43 44 44 43 43 43 44 46 49 51 50 49 49 48 46 43 41 40 38 36 33 31 30 29 29 29 27 27 27 27 27 28 28 28 28 27 27 27 26 26 26 25 24 25 25 26 26 26 26 26 26 27 27 27
44 43 42 41 41 41 39 39 40 41 42 42 42 41 40 40 42 46 50 51 50 50 50 47 43 42 40 38 35 33 31 30 29 29 28 27 27 27 28 28 28 27 27 27 27 27 27 27 26 26 25 25 26 27 26 26 26 26 26 25 25 24 24
45 44 42 42 41 40 39 38 38 39 39 40 41 41 41 40 40 42 47 50 51 51 51 48 44 41 40 37 35 33 31 30 30 29 28 28 29 29 29 29 29 28 28 29 29 28 28 27 27 27 26 26 27 27 26 25 25 24 23 22 21 20 20
46 45 44 42 41 40 39 38 38 38 38 39 39 41 43 43 43 44 47 50 52 52 51 48 43 40 38 36 34 33 31 30 30 29 29 29 29 29 29 29 29 30 29 29 28 28 28 28 28 27 27 27 27 26 25 24 23 21 21 20 19 19 19
48 46 45 43 42 40 39 39 39 38 37 38 39 41 44 45 45 47 48 50 52 53 52 47 42 38 36 35 33 33 33 32 31 29 29 29 29 29 30 31 31 31 30 30 29 30 30 30 29 29 28 27 26 25 24 23 22 21 21 20 20 19 19
49 48 47 45 43 42 41 42 42 40 38 39 40 41 43 45 45 46 48 50 53 53 50 45 41 38 35 35 35 35 34 34 33 31 30 31 31 31 32 33 33 33 32 32 32 33 33 32 32 31 30 28 27 26 25 25 24 23 23 23 23 23 22
Wind_Direction
232 234 235 230 226 228 230 230 230 231 235 237 238 242 242 240 233 222 218 218 218 216 213 212 212 210 208 207 206 209 209 207 205 203 200 197 196 194 189 185 184 184 185 187 187 186 187 189 190 191 192 195 197 196 194 192 190 187 185 183 182 183 185
232 233 236 233 228 228 229 231 232 229 229 235 237 240 242 243 239 228 219 216 217 218 216 213 212 211 210 210 210 210 210 208 206 205 203 200 198 197 195 192 190 189 191 192 190 191 192 192 193 193 194 196 197 195 192 190 187 184 182 178 177 176 180
232 231 234 234 230 229 229 230 232 230 227 233 238 240 244 244 242 234 223 217 215 216 216 215 213 212 211 212 213 212 212 210 207 205 205 203 201 201 199 197 195 195 197 195 192 195 196 193 192 191 190 189 186 181 175 168 164 158 153 148 145 142 140
235 234 236 236 229 226 229 228 229 231 228 230 236 239 241 241 241 237 228 222 218 215 215 215 215 213 212 212 214 215 214 212 210 207 205 205 204 203 202 201 200 199 200 198 196 198 197 194 191 187 183 177 170 164 157 152 149 145 143 141 137 135 131
235 236 237 237 231 225 227 226 223 226 229 228 233 237 238 239 239 238 233 227 223 219 215 215 215 213 212 212 214 215 216 214 211 209 207 206 206 206 206 205 204 204 203 201 199 198 197 194 190 184 178 172 166 162 158 156 154 152 152 155 158 161 165
234 235 235 237 234 227 228 230 223 221 226 228 231 237 239 239 239 238 236 230 226 223 220 218 216 214 213 213 214 215 217 216 213 210 210 209 209 208 208 207 206 206 207 205 202 200 198 195 191 185 180 176 172 168 166 166 166 167 170 178 189 199 208
233 235 235 237 236 229 226 231 228 223 225 226 228 235 238 238 238 237 236 234 231 228 226 224 221 219 217 216 215 215 217 217 215 212 212 212 212 211 210 210 208 207 209 208 204 202 201 198 192 189 186 182 179 177 176 177 178 180 185 195 207 216 222
232 233 234 235 237 232 225 228 232 230 229 228 229 234 239 241 240 240 238 237 236 233 230 228 226 224 222 221 219 218 217 217 215 214 213 213 214 213 213 212 210 209 210 210 206 204 205 202 196 194 192 188 186 185 186 187 188 190 195 204 213 222 230
230 231 232 233 234 233 226 224 229 230 229 232 232 233 238 241 242 243 242 240 239 236 234 232 229 226 226 225 223 222 221 219 216 215 215 216 216 215 215 214 212 210 210 210 208 206 208 206 201 199 198 194 192 193 194 196 197 198 203 209 216 223 231
229 229 230 229 231 233 228 223 225 227 227 231 234 233 236 240 241 243 242 241 240 238 236 234 230 228 227 227 226 225 224 222 219 217 216 217 218 218 217 216 214 212 211 211 209 207 210 210 206 204 202 199 198 198 200 203 204 204 207 213 219 225 231
229 228 228 227 227 230 230 226 225 225 226 231 235 235 236 239 241 242 243 243 242 241 239 237 234 230 228 228 228 227 227 225 223 220 218 218 219 219 220 218 217 215 214 214 212 210 211 212 210 207 206 203 202 203 204 207 209 210 214 218 223 229 233
223 224 225 225 226 227 230 231 227 225 227 230 234 236 236 238 241 242 243 243 242 241 240 239 238 234 231 230 229 229 229 227 225 222 220 219 219 220 221 221 219 219 218 217 215 213 214 215 213 211 209 207 205 206 207 209 211 215 220 225 229 232 236
221 219 218 219 220 220 224 229 228 225 226 228 231 233 234 236 239 241 241 242 241 240 240 240 240 239 236 234 232 231 230 229 227 225 222 221 220 221 222 222 221 221 222 221 220 218 218 218 217 214 213 211 208 208 209 210 213 218 225 231 234 237 240
224 223 220 217 217 217 219 225 226 224 225 227 229 231 233 233 236 238 239 240 241 240 239 239 241 241 240 239 236 234 232 231 229 226 224 222 222 222 223 223 223 223 224 224 224 223 222 222 221 219 218 215 212 211 211 211 214 222 230 235 236 238 243
220 221 220 217 216 217 220 223 225 224 224 227 229 230 231 232 233 236 237 238 240 241 240 238 238 239 240 241 240 237 234 233 231 228 226 224 223 223 224 225 224 224 225 226 227 226 225 225 225 224 223 221 217 214 213 213 217 226 235 239 237 240 246
215 216 218 217 215 214 216 219 220 220 221 225 227 227 228 230 232 234 238 239 241 243 244 242 240 239 241 243 242 239 235 234 233 231 228 227 225 225 226 226 227 226 226 227 229 229 228 228 228 227 227 225 222 218 216 217 221 229 239 241 239 242 248
212 214 216 217 216 215 215 216 217 216 218 222 225 225 226 228 229 232 235 238 241 244 246 247 244 242 243 244 244 241 237 235 234 234 231 229 227 226 227 228 229 228 228 229 231 232 231 230 230 230 230 229 226 223 220 221 225 232 241 244 242 245 250
210 212 212 214 216 216 216 216 215 215 217 222 226 226 225 226 227 229 232 235 239 242 246 248 247 244 243 244 245 245 242 237 235 235 234 231 229 228 229 230 230 230 230 230 232 233 233 233 232 231 231 231 230 227 226 226 229 236 244 246 244 246 250
211 213 213 214 216 217 216 215 215 215 216 221 226 228 227 226 226 227 230 234 237 240 244 246 246 245 244 244 245 246 245 242 237 236 236 234 231 230 230 231 232 233 233 233 234 234 234 234 234 233 232 232 231 231 230 230 232 239 246 249 247 246 249
212 213 214 215 215 216 216 216 216 216 217 221 225 227 228 228 225 224 226 230 232 235 239 242 244 245 244 243 244 245 245 244 241 239 238 237 234 232 232 232 233 235 236 236 236 236 236 236 235 235 233 232 232 232 233 234 236 241 247 249 248 247 249
212 213 214 215 215 215 215 216 217 218 219 222 224 227 229 230 227 224 224 228 230 231 235 238 241 244 244 241 242 244 245 245 243 242 241 240 238 235 234 234 234 236 238 239 239 239 239 238 237 237 235 234 233 233 235 236 238 242 247 249 249 248 249
212 213 214 215 216 216 216 216 218 219 221 223 225 227 229 231 231 228 226 227 230 231 233 235 238 240 242 241 241 243 246 245 243 242 242 243 241 239 237 236 236 238 240 242 242 241 241 240 239 239 238 237 235 235 236 237 239 242 246 248 249 249 250
213 214 215 216 216 217 217 217 218 220 222 223 225 228 230 231 232 232 229 227 229 230 232 234 235 237 240 242 242 244 247 247 244 242 242 243 243 242 241 239 238 239 241 242 243 243 243 243 242 241 240 240 238 237 237 238 239 242 245 246 247 249 250
215 214 216 217 218 218 218 218 219 221 224 224 224 227 229 230 232 234 234 232 231 231 232 233 234 233 237 241 243 245 249 249 246 243 242 243 244 244 243 242 241 240 241 242 243 243 243 243 243 243 243 242 241 240 239 240 240 242 244 245 245 247 249
216 215 216 218 219 219 220 220 220 222 225 226 226 226 228 230 231 233 236 237 235 232 231 232 232 231 234 240 243 246 250 251 249 244 242 242 243 244 244 243 242 241 241 241 242 242 243 244 245 245 245 245 244 241 241 241 241 242 244 244 244 245 247
216 217 217 218 219 221 221 222 222 224 226 227 226 227 229 231 233 233 235 239 238 233 231 231 230 229 232 237 240 244 249 252 251 248 244 243 242 242 242 242 242 242 241 242 242 242 243 244 246 247 247 246 244 242 240 240 240 241 243 243 242 243 245
216 217 218 218 219 221 222 223 223 225 227 228 227 227 229 232 234 234 235 237 238 235 232 230 228 227 230 234 239 243 248 252 254 251 247 244 242 241 241 240 241 241 242 242 243 243 244 245 247 247 247 246 244 241 239 239 239 240 241 242 241 242 244
215 216 217 218 220 221 222 223 225 226 228 229 228 228 229 231 233 233 233 234 235 235 234 230 227 226 229 234 239 244 249 253 254 252 248 246 245 243 241 239 239 240 241 243 244 244 244 245 246 247 246 244 242 239 238 239 239 239 239 240 240 241 244
214 215 216 217 219 221 222 223 225 227 229 230 229 228 229 231 232 232 232 229 230 233 234 230 228 228 231 235 241 245 249 252 253 251 248 247 247 246 244 240 239 239 240 242 243 243 244 244 245 245 243 241 238 237 236 238 239 239 238 239 240 241 244
214 213 214 216 218 221 223 224 226 228 230 232 231 230 230 231 231 231 229 225 226 231 232 230 228 229 231 236 240 244 248 251 251 249 247 247 247 246 244 242 239 239 240 241 241 241 242 243 243 242 239 236 235 235 236 238 239 239 238 238 240 241 244
212 212 213 215 217 221 223 224 227 229 230 232 232 231 231 230 229 229 227 224 225 229 231 230 228 228 230 235 240 244 247 248 248 246 246 245 245 244 243 241 240 238 238 239 240 240 240 240 239 237 235 234 235 236 237 237 237 237 236 238 240 242 244
211 212 212 214 216 219 221 223 224 226 228 229 230 230 228 227 226 227 226 225 225 228 229 229 229 228 230 235 239 242 244 245 244 244 244 244 242 241 240 239 237 236 236 236 237 237 236 236 235 234 235 235 236 235 234 233 233 234 235 238 241 243 246
211 211 212 213 215 216 216 215 215 217 221 223 225 227 227 224 222 223 224 224 225 227 228 229 229 229 231 235 238 239 240 241 241 242 242 242 240 238 237 236 235 234 234 235 234 233 233 233 233 233 233 233 233 233 232 232 233 235 238 241 245 248 251
209 209 210 212 213 210 207 206 208 212 216 219 221 222 224 224 222 221 223 224 224 224 227 228 228 229 232 235 236 235 236 238 239 239 239 237 236 234 233 233 233 232 231 231 231 230 230 231 231 231 230 230 231 232 233 234 235 238 241 245 247 250 253
207 208 209 211 210 206 204 206 209 211 214 217 218 218 218 220 220 221 221 222 221 223 226 227 227 230 233 234 231 231 233 235 236 236 235 234 233 233 232 231 231 231 229 229 229 229 230 230 230 230 229 230 231 234 237 238 239 241 243 243 245 248 252
205 206 209 212 210 207 206 208 211 212 214 217 218 217 216 216 217 218 219 218 218 221 225 226 228 230 231 229 227 229 232 234 234 234 234 233 233 232 231 231 231 230 230 230 230 230 230 230 230 231 231 232 234 237 239 238 237 238 241 244 247 251 255
205 206 208 212 213 210 207 208 211 213 214 217 218 218 217 215 215 216 217 215 215 219 223 225 227 228 227 226 227 230 232 234 235 235 234 234 233 232 230 229 229 229 229 228 227 226 227 228 228 230 232 233 233 234 235 235 235 238 242 247 250 252 254
205 206 208 211 214 213 210 210 212 213 214 216 217 217 216 214 213 214 214 213 215 219 222 223 225 226 225 225 228 232 234 236 236 235 235 234 232 231 230 229 229 229 229 228 226 225 226 228 228 230 232 233 231 231 234 236 240 243 246 249 252 253 253